When you browse on this site, cookies collect data to enhance your experience and personalize the content and advertising you see.
Visit our Privacy Policy to learn more. By continuing to use the site, you agree to this use of cookies and data.
  • In Hungary
  • List of Countries
  • For 7 days
  • Water Temperature
  • Satellite Maps
  • Weather Map
  • News
  • Weather Widgets
  • user-avatar
    Login

    Hourly Weather Gajewo

    Today, 16 January, Wednesday

    Time Temperature Precipitation Wind Pressure Humidity
    00:00 +4°C° 0.5 mm 7 mps 749 mmHg 88%
    01:00 +5°C° 0 mm 5 mps 749 mmHg 90%
    02:00 +5°C° 0.9 mm 5 mps 749 mmHg 89%
    03:00 +4°C° 0.9 mm 6 mps 749 mmHg 89%
    04:00 +5°C° 0.9 mm 6 mps 749 mmHg 89%
    05:00 +5°C° 0.1 mm 6 mps 749 mmHg 87%
    06:00 +5°C° 0.1 mm 7 mps 749 mmHg 84%
    07:00 +4°C° 0 mm 6 mps 750 mmHg 85%
    08:00 +4°C° 0 mm 6 mps 750 mmHg 85%
    09:00 +4°C° 0 mm 6 mps 750 mmHg 84%
    10:00 +4°C° 0 mm 6 mps 750 mmHg 84%
    11:00 +4°C° 0 mm 6 mps 750 mmHg 83%
    12:00 +4°C° 0 mm 6 mps 750 mmHg 82%
    13:00 +5°C° 0 mm 5 mps 750 mmHg 83%
    14:00 +5°C° 0 mm 5 mps 749 mmHg 83%
    15:00 +4°C° 0 mm 6 mps 749 mmHg 83%
    16:00 +4°C° 0 mm 6 mps 749 mmHg 83%
    17:00 +4°C° 0 mm 6 mps 749 mmHg 82%
    18:00 +4°C° 0 mm 6 mps 748 mmHg 81%
    19:00 +4°C° 0 mm 6 mps 748 mmHg 80%
    20:00 +3°C° 0.1 mm 6 mps 748 mmHg 80%
    21:00 +3°C° 0.1 mm 6 mps 747 mmHg 80%
    22:00 +2°C° 0.1 mm 6 mps 747 mmHg 80%
    23:00 +2°C° 0 mm 6 mps 746 mmHg 81%

    Tomorrow, 17 January, Thursday

    Time Temperature Precipitation Wind Pressure Humidity
    00:00 +1°C° 0 mm 6 mps 745 mmHg 82%
    01:00 +1°C° 0 mm 6 mps 745 mmHg 82%
    02:00 +1°C° 0 mm 6 mps 744 mmHg 81%
    03:00 +1°C° 0 mm 6 mps 744 mmHg 79%
    04:00 +1°C° 0 mm 6 mps 743 mmHg 78%
    05:00 +1°C° 0.1 mm 6 mps 743 mmHg 78%
    06:00 +2°C° 0.1 mm 7 mps 743 mmHg 79%
    07:00 +2°C° 0.1 mm 7 mps 743 mmHg 80%
    08:00 +2°C° 0.1 mm 7 mps 743 mmHg 80%
    09:00 +3°C° 0.1 mm 7 mps 744 mmHg 80%
    10:00 +3°C° 0.1 mm 6 mps 744 mmHg 80%
    11:00 +3°C° 0 mm 7 mps 744 mmHg 75%
    12:00 +4°C° 0 mm 7 mps 744 mmHg 70%
    13:00 +4°C° 0 mm 7 mps 744 mmHg 64%
    14:00 +4°C° 0 mm 6 mps 744 mmHg 66%
    15:00 +3°C° 0 mm 6 mps 744 mmHg 68%
    16:00 +3°C° 0 mm 5 mps 744 mmHg 70%
    17:00 +3°C° 0.1 mm 4 mps 744 mmHg 73%
    18:00 +3°C° 0.1 mm 3 mps 744 mmHg 76%
    19:00 +3°C° 0.1 mm 3 mps 744 mmHg 79%
    20:00 +3°C° 0.3 mm 4 mps 744 mmHg 77%
    21:00 +1°C° 0.3 mm 4 mps 745 mmHg 76%
    22:00 +1°C° 0.3 mm 5 mps 745 mmHg 75%
    23:00 +1°C° 0.1 mm 6 mps 746 mmHg 75%

    Day after tomorrow, 18 January, Friday

    Time Temperature Precipitation Wind Pressure Humidity
    00:00 -1°C° 0.1 mm 6 mps 746 mmHg 76%
    01:00 -1°C° 0.1 mm 7 mps 747 mmHg 77%
    02:00 -2°C° 0.1 mm 7 mps 748 mmHg 78%
    03:00 -2°C° 0.1 mm 7 mps 748 mmHg 79%
    04:00 -2°C° 0.1 mm 6 mps 749 mmHg 80%
    05:00 -3°C° 0.1 mm 6 mps 750 mmHg 79%
    06:00 -2°C° 0.1 mm 5 mps 751 mmHg 78%
    07:00 -2°C° 0.1 mm 5 mps 752 mmHg 77%
    08:00 -2°C° 0 mm 5 mps 753 mmHg 76%
    09:00 -2°C° 0 mm 5 mps 755 mmHg 75%
    10:00 -2°C° 0 mm 5 mps 756 mmHg 74%
    11:00 -1°C° 0 mm 5 mps 756 mmHg 71%
    12:00 -1°C° 0 mm 5 mps 757 mmHg 68%
    13:00 0°C° 0 mm 4 mps 757 mmHg 66%
    14:00 -1°C° 0 mm 4 mps 758 mmHg 68%
    15:00 0°C° 0 mm 3 mps 758 mmHg 71%
    16:00 -1°C° 0 mm 3 mps 758 mmHg 73%
    17:00 -1°C° 0 mm 3 mps 758 mmHg 73%
    18:00 -2°C° 0 mm 3 mps 759 mmHg 73%
    19:00 -2°C° 0 mm 3 mps 759 mmHg 72%
    20:00 -2°C° 0 mm 3 mps 759 mmHg 74%
    21:00 -2°C° 0 mm 3 mps 759 mmHg 75%
    22:00 -2°C° 0 mm 3 mps 760 mmHg 77%
    23:00 -2°C° 0 mm 3 mps 760 mmHg 79%

    19 January, Saturday

    Time Temperature Precipitation Wind Pressure Humidity
    00:00 -2°C° 0 mm 3 mps 760 mmHg 81%
    01:00 -2°C° 0 mm 3 mps 760 mmHg 83%
    02:00 -2°C° 0 mm 2 mps 760 mmHg 84%
    03:00 -2°C° 0 mm 2 mps 760 mmHg 84%
    04:00 -2°C° 0 mm 2 mps 760 mmHg 85%
    05:00 -2°C° 0 mm 2 mps 760 mmHg 85%
    06:00 -2°C° 0 mm 2 mps 760 mmHg 85%
    07:00 -2°C° 0 mm 2 mps 760 mmHg 85%
    08:00 -2°C° 0 mm 2 mps 760 mmHg 82%
    09:00 -2°C° 0 mm 2 mps 760 mmHg 80%
    10:00 -1°C° 0 mm 2 mps 760 mmHg 78%
    11:00 +1°C° 0 mm 2 mps 760 mmHg 75%
    12:00 +1°C° 0 mm 2 mps 760 mmHg 72%
    13:00 +3°C° 0 mm 1 mps 760 mmHg 68%
    14:00 +2°C° 0 mm 1 mps 760 mmHg 71%
    15:00 +2°C° 0 mm 1 mps 759 mmHg 74%
    16:00 0°C° 0 mm 0 mps 759 mmHg 77%
    17:00 0°C° 0 mm 0 mps 759 mmHg 77%
    18:00 -1°C° 0 mm 0 mps 759 mmHg 78%
    19:00 -1°C° 0 mm 0 mps 759 mmHg 79%
    20:00 0°C° 0 mm 1 mps 759 mmHg 79%
    21:00 0°C° 0 mm 1 mps 759 mmHg 79%
    22:00 0°C° 0 mm 1 mps 759 mmHg 79%
    23:00 0°C° 0 mm 1 mps 759 mmHg 77%

    20 January, Sunday

    Time Temperature Precipitation Wind Pressure Humidity
    00:00 0°C° 0 mm 1 mps 759 mmHg 76%
    01:00 0°C° 0 mm 1 mps 759 mmHg 75%
    02:00 -1°C° 0 mm 1 mps 759 mmHg 74%
    03:00 -1°C° 0 mm 1 mps 759 mmHg 73%
    04:00 -1°C° 0 mm 1 mps 758 mmHg 71%
    05:00 -1°C° 0 mm 1 mps 758 mmHg 71%
    06:00 -1°C° 0 mm 1 mps 759 mmHg 71%
    07:00 -1°C° 0 mm 1 mps 759 mmHg 70%
    08:00 -1°C° 0 mm 1 mps 759 mmHg 68%
    09:00 0°C° 0 mm 1 mps 759 mmHg 66%
    10:00 -1°C° 0 mm 0 mps 759 mmHg 63%
    11:00 0°C° 0 mm 0 mps 759 mmHg 60%
    12:00 +1°C° 0 mm 0 mps 759 mmHg 57%
    13:00 +1°C° 0 mm 0 mps 759 mmHg 54%
    14:00 +1°C° 0 mm 0 mps 759 mmHg 59%
    15:00 +1°C° 0 mm 1 mps 759 mmHg 65%
    16:00 0°C° 0 mm 1 mps 759 mmHg 70%
    17:00 0°C° 0 mm 1 mps 760 mmHg 74%
    18:00 -1°C° 0 mm 1 mps 760 mmHg 79%
    19:00 -1°C° 0 mm 1 mps 760 mmHg 83%
    20:00 -1°C° 0 mm 1 mps 760 mmHg 85%
    21:00 -3°C° 0 mm 2 mps 761 mmHg 87%
    22:00 -3°C° 0 mm 2 mps 761 mmHg 88%
    23:00 -3°C° 0 mm 2 mps 761 mmHg 89%

    21 January, Monday

    Time Temperature Precipitation Wind Pressure Humidity
    00:00 -3°C° 0 mm 2 mps 762 mmHg 89%
    01:00 -2°C° 0 mm 3 mps 762 mmHg 89%
    02:00 -3°C° 0 mm 2 mps 762 mmHg 88%
    03:00 -3°C° 0 mm 2 mps 762 mmHg 87%
    04:00 -3°C° 0 mm 2 mps 763 mmHg 87%
    05:00 -4°C° 0 mm 2 mps 763 mmHg 85%
    06:00 -4°C° 0 mm 2 mps 763 mmHg 83%
    07:00 -4°C° 0 mm 2 mps 764 mmHg 81%
    08:00 -4°C° 0 mm 2 mps 764 mmHg 78%
    09:00 -1°C° 0 mm 1 mps 765 mmHg 76%
    10:00 -1°C° 0 mm 1 mps 765 mmHg 73%
    11:00 0°C° 0 mm 1 mps 765 mmHg 68%
    12:00 0°C° 0 mm 1 mps 765 mmHg 62%
    13:00 +1°C° 0 mm 1 mps 766 mmHg 56%
    14:00 0°C° 0 mm 1 mps 765 mmHg 59%
    15:00 0°C° 0 mm 1 mps 765 mmHg 62%
    16:00 -1°C° 0 mm 1 mps 765 mmHg 65%
    17:00 -1°C° 0 mm 1 mps 765 mmHg 67%
    18:00 -1°C° 0 mm 1 mps 765 mmHg 69%
    19:00 -2°C° 0 mm 1 mps 765 mmHg 71%
    20:00 -2°C° 0 mm 1 mps 765 mmHg 71%
    21:00 -2°C° 0 mm 1 mps 765 mmHg 72%
    22:00 -4°C° 0 mm 2 mps 765 mmHg 73%
    23:00 -4°C° 0 mm 2 mps 764 mmHg 74%
    Show more